When you browse on this site, cookies collect data to enhance your experience and personalize the content and advertising you see.
Visit our Privacy Policy to learn more. By continuing to use the site, you agree to this use of cookies and data.
  • In Hungary
  • List of Countries
  • For 7 days
  • Water Temperature
  • Weather Map
  • News
  • Weather Widgets
  • user-avatar
    Login

    Hourly Weather Ameglia

    Today, 8 December, Sunday

    Time Temperature Precipitation Wind Pressure Humidity
    00:00 +12°C° 0.2 mm 3 mps 757 mmHg 95%
    01:00 +12°C° 0 mm 3 mps 758 mmHg 96%
    02:00 +12°C° 0.2 mm 3 mps 757 mmHg 96%
    03:00 +12°C° 0.2 mm 3 mps 757 mmHg 96%
    04:00 +12°C° 0.2 mm 3 mps 756 mmHg 96%
    05:00 +12°C° 0.1 mm 3 mps 757 mmHg 96%
    06:00 +12°C° 0.1 mm 3 mps 757 mmHg 95%
    07:00 +12°C° 0 mm 3 mps 758 mmHg 95%
    08:00 +13°C° 0.1 mm 2 mps 758 mmHg 93%
    09:00 +14°C° 0.1 mm 2 mps 758 mmHg 90%
    10:00 +14°C° 0.1 mm 2 mps 758 mmHg 88%
    11:00 +14°C° 0.2 mm 2 mps 757 mmHg 88%
    12:00 +14°C° 0.2 mm 2 mps 757 mmHg 88%
    13:00 +14°C° 0 mm 2 mps 757 mmHg 89%
    14:00 +13°C° 0.3 mm 3 mps 757 mmHg 90%
    15:00 +13°C° 0.3 mm 3 mps 756 mmHg 92%
    16:00 +13°C° 0.3 mm 3 mps 756 mmHg 93%
    17:00 +12°C° 0.2 mm 3 mps 756 mmHg 93%
    18:00 +12°C° 0.2 mm 3 mps 756 mmHg 93%
    19:00 +12°C° 0.2 mm 3 mps 755 mmHg 94%
    20:00 +12°C° 0.1 mm 3 mps 755 mmHg 94%
    21:00 +11°C° 0.1 mm 3 mps 755 mmHg 94%
    22:00 +11°C° 0.1 mm 3 mps 754 mmHg 94%
    23:00 +11°C° 0.2 mm 3 mps 754 mmHg 93%

    Tomorrow, 9 December, Monday

    Time Temperature Precipitation Wind Pressure Humidity
    00:00 +11°C° 0.2 mm 4 mps 753 mmHg 93%
    01:00 +11°C° 0.2 mm 4 mps 753 mmHg 93%
    02:00 +11°C° 0.3 mm 4 mps 752 mmHg 93%
    03:00 +11°C° 0.3 mm 4 mps 751 mmHg 94%
    04:00 +11°C° 0.3 mm 3 mps 750 mmHg 94%
    05:00 +11°C° 0.5 mm 3 mps 750 mmHg 94%
    06:00 +11°C° 0.5 mm 4 mps 749 mmHg 95%
    07:00 +12°C° 0.5 mm 4 mps 749 mmHg 96%
    08:00 +12°C° 0.3 mm 3 mps 748 mmHg 94%
    09:00 +12°C° 0.3 mm 3 mps 748 mmHg 93%
    10:00 +13°C° 0.3 mm 2 mps 748 mmHg 91%
    11:00 +13°C° 0.1 mm 2 mps 748 mmHg 87%
    12:00 +13°C° 0.1 mm 3 mps 747 mmHg 83%
    13:00 +14°C° 0.1 mm 3 mps 747 mmHg 79%
    14:00 +13°C° 0 mm 3 mps 747 mmHg 82%
    15:00 +13°C° 0 mm 2 mps 746 mmHg 85%
    16:00 +13°C° 0 mm 2 mps 746 mmHg 88%
    17:00 +12°C° 0 mm 2 mps 746 mmHg 89%
    18:00 +10°C° 0 mm 2 mps 746 mmHg 90%
    19:00 +9°C° 0 mm 2 mps 746 mmHg 90%
    20:00 +9°C° 0 mm 2 mps 747 mmHg 87%
    21:00 +8°C° 0 mm 2 mps 747 mmHg 85%
    22:00 +8°C° 0 mm 2 mps 747 mmHg 82%
    23:00 +8°C° 0 mm 2 mps 748 mmHg 82%

    Day after tomorrow, 10 December, Tuesday

    Time Temperature Precipitation Wind Pressure Humidity
    00:00 +8°C° 0 mm 3 mps 748 mmHg 82%
    01:00 +7°C° 0 mm 3 mps 749 mmHg 83%
    02:00 +7°C° 0 mm 3 mps 749 mmHg 82%
    03:00 +7°C° 0 mm 3 mps 750 mmHg 81%
    04:00 +7°C° 0 mm 3 mps 750 mmHg 80%
    05:00 +7°C° 0 mm 3 mps 751 mmHg 79%
    06:00 +7°C° 0 mm 3 mps 752 mmHg 78%
    07:00 +6°C° 0 mm 4 mps 752 mmHg 78%
    08:00 +7°C° 0 mm 4 mps 753 mmHg 74%
    09:00 +8°C° 0 mm 4 mps 754 mmHg 70%
    10:00 +10°C° 0 mm 3 mps 755 mmHg 67%
    11:00 +10°C° 0 mm 3 mps 755 mmHg 62%
    12:00 +12°C° 0 mm 2 mps 755 mmHg 57%
    13:00 +13°C° 0 mm 2 mps 755 mmHg 52%
    14:00 +12°C° 0 mm 2 mps 755 mmHg 56%
    15:00 +10°C° 0 mm 2 mps 755 mmHg 60%
    16:00 +9°C° 0 mm 2 mps 756 mmHg 64%
    17:00 +8°C° 0 mm 2 mps 756 mmHg 65%
    18:00 +7°C° 0 mm 2 mps 756 mmHg 65%
    19:00 +5°C° 0 mm 3 mps 757 mmHg 66%
    20:00 +5°C° 0 mm 3 mps 757 mmHg 66%
    21:00 +5°C° 0 mm 3 mps 758 mmHg 66%
    22:00 +4°C° 0 mm 3 mps 758 mmHg 66%
    23:00 +4°C° 0 mm 3 mps 758 mmHg 67%

    11 December, Wednesday

    Time Temperature Precipitation Wind Pressure Humidity
    00:00 +4°C° 0 mm 3 mps 758 mmHg 68%
    01:00 +4°C° 0 mm 3 mps 758 mmHg 69%
    02:00 +5°C° 0 mm 2 mps 758 mmHg 68%
    03:00 +4°C° 0 mm 2 mps 757 mmHg 67%
    04:00 +4°C° 0 mm 2 mps 757 mmHg 66%
    05:00 +4°C° 0 mm 2 mps 757 mmHg 65%
    06:00 +4°C° 0 mm 2 mps 757 mmHg 64%
    07:00 +4°C° 0 mm 2 mps 757 mmHg 63%
    08:00 +5°C° 0 mm 2 mps 757 mmHg 59%
    09:00 +8°C° 0 mm 1 mps 756 mmHg 55%
    10:00 +9°C° 0 mm 1 mps 756 mmHg 51%
    11:00 +10°C° 0 mm 1 mps 756 mmHg 48%
    12:00 +11°C° 0 mm 1 mps 755 mmHg 45%
    13:00 +11°C° 0 mm 1 mps 754 mmHg 42%
    14:00 +10°C° 0 mm 1 mps 754 mmHg 51%
    15:00 +9°C° 0 mm 1 mps 753 mmHg 60%
    16:00 +8°C° 0 mm 1 mps 752 mmHg 69%
    17:00 +8°C° 0 mm 1 mps 752 mmHg 71%
    18:00 +8°C° 0 mm 1 mps 751 mmHg 73%
    19:00 +7°C° 0 mm 1 mps 751 mmHg 75%
    20:00 +8°C° 0.1 mm 1 mps 751 mmHg 77%
    21:00 +8°C° 0.1 mm 1 mps 750 mmHg 78%
    22:00 +7°C° 0.1 mm 2 mps 750 mmHg 80%
    23:00 +7°C° 0.2 mm 2 mps 750 mmHg 82%

    12 December, Thursday

    Time Temperature Precipitation Wind Pressure Humidity
    00:00 +7°C° 0.2 mm 3 mps 749 mmHg 84%
    01:00 +7°C° 0.2 mm 3 mps 749 mmHg 86%
    02:00 +6°C° 0.4 mm 4 mps 749 mmHg 89%
    03:00 +6°C° 0.4 mm 4 mps 748 mmHg 91%
    04:00 +6°C° 0.4 mm 4 mps 748 mmHg 94%
    05:00 +7°C° 0.2 mm 4 mps 748 mmHg 94%
    06:00 +8°C° 0.2 mm 3 mps 748 mmHg 94%
    07:00 +8°C° 0.2 mm 3 mps 748 mmHg 93%
    08:00 +8°C° 0.1 mm 3 mps 748 mmHg 91%
    09:00 +8°C° 0.1 mm 2 mps 748 mmHg 89%
    10:00 +9°C° 0.1 mm 2 mps 749 mmHg 87%
    11:00 +9°C° 0.1 mm 2 mps 749 mmHg 79%
    12:00 +10°C° 0.1 mm 2 mps 749 mmHg 71%
    13:00 +10°C° 0.1 mm 2 mps 749 mmHg 62%
    14:00 +9°C° 0 mm 3 mps 749 mmHg 65%
    15:00 +8°C° 0 mm 3 mps 750 mmHg 69%
    16:00 +8°C° 0 mm 3 mps 750 mmHg 72%
    17:00 +5°C° 0 mm 3 mps 750 mmHg 72%
    18:00 +4°C° 0 mm 3 mps 751 mmHg 72%
    19:00 +3°C° 0 mm 3 mps 751 mmHg 73%
    20:00 +4°C° 0 mm 2 mps 752 mmHg 68%
    21:00 +4°C° 0 mm 2 mps 752 mmHg 64%
    22:00 +4°C° 0 mm 2 mps 752 mmHg 59%
    23:00 +4°C° 0 mm 2 mps 752 mmHg 62%

    13 December, Friday

    Time Temperature Precipitation Wind Pressure Humidity
    00:00 +5°C° 0 mm 2 mps 752 mmHg 65%
    01:00 +5°C° 0 mm 2 mps 751 mmHg 68%
    02:00 +5°C° 0 mm 2 mps 751 mmHg 72%
    03:00 +4°C° 0 mm 3 mps 750 mmHg 76%
    04:00 +4°C° 0 mm 3 mps 749 mmHg 80%
    05:00 +4°C° 0.1 mm 3 mps 749 mmHg 79%
    06:00 +5°C° 0.1 mm 3 mps 748 mmHg 78%
    07:00 +5°C° 0.1 mm 3 mps 747 mmHg 76%
    08:00 +7°C° 0.4 mm 3 mps 747 mmHg 82%
    09:00 +7°C° 0.4 mm 3 mps 746 mmHg 87%
    10:00 +8°C° 0.4 mm 3 mps 746 mmHg 92%
    11:00 +9°C° 0.1 mm 3 mps 745 mmHg 91%
    12:00 +10°C° 0.1 mm 3 mps 744 mmHg 91%
    13:00 +11°C° 0.1 mm 3 mps 743 mmHg 90%
    14:00 +10°C° 0 mm 3 mps 743 mmHg 89%
    15:00 +10°C° 0 mm 2 mps 743 mmHg 89%
    16:00 +11°C° 0 mm 1 mps 742 mmHg 89%
    17:00 +10°C° 0 mm 1 mps 742 mmHg 89%
    18:00 +9°C° 0 mm 1 mps 743 mmHg 89%
    19:00 +9°C° 0 mm 1 mps 743 mmHg 89%
    20:00 +9°C° 0 mm 1 mps 743 mmHg 89%
    21:00 +8°C° 0 mm 2 mps 743 mmHg 89%
    22:00 +8°C° 0 mm 2 mps 743 mmHg 89%
    23:00 +8°C° 0 mm 2 mps 743 mmHg 88%
    Show more